Regional Weather Roundup
Issued by NWS

Home | Current Version | Previous Version | Graphics & Text | Print | Product List | Glossary On
Versions: 1 2 3 4 5 6 7 8 9 10 11 12 13 14 15 16 17 18 19 20 21 22 23 24 25 26 27 28 29 30 31 32 33 34 35 36 37 38 39 40 41 42 43 44 45 46 47 48 49 50
000
ASUS45 KCYS 250910
RWRWY

WYOMING REGIONAL WEATHER ROUNDUP
NATIONAL WEATHER SERVICE CHEYENNE WY
300 AM MDT THU MAY 25 2017

NOTE:  "FAIR" INDICATES FEW OR NO CLOUDS BELOW 12,000 FEET
WITH NO SIGNIFICANT WEATHER AND/OR OBSTRUCTIONS TO VISIBILITY.

WYZ001-251000-
YELLOWSTONE NATIONAL PARK

CITY           SKY/WX    TMP DP  RH WIND       PRES   REMARKS
LK YELLOWSTONE   N/A     30  16  56 CALM      29.68R
W YELLOWSTONE  NOT AVBL

$$
WYZ002>013-054>058-071-098>099-251000-
NORTHERN WYOMING

CITY           SKY/WX    TMP DP  RH WIND       PRES   REMARKS
JACKSON        FAIR      45  12  26 SW9       29.63R
CODY           FAIR      44  19  36 NW7       29.58R
GREYBULL       FAIR      55  14  19 NW20G31   29.45R
WORLAND        FAIR      53  24  32 NW12      29.50R
SHERIDAN       FAIR      46  25  43 NW9       29.56R
BUFFALO        FAIR      47  26  44 N9        29.58R
GILLETTE       FAIR      44  35  70 CALM      29.52R
HULETT         FAIR      48  37  66 W3        29.51R
NEWCASTLE      FAIR      54  32  43 NW13      29.47R

$$
WYZ014>020-022>026-101>103-251000-
CENTRAL WYOMING

CITY           SKY/WX    TMP DP  RH WIND       PRES   REMARKS
BIG PINEY      CLOUDY    39  36  89 SW10      29.69F WCI  32
PINEDALE       CLOUDY    37  34  87 W7        29.71S WCI  32
DUBOIS         NOT AVBL
LANDER         FAIR      54  34  46 W7        29.55R
RIVERTON       CLOUDY    57  32  38 W22       29.51F
CASPER         CLOUDY    49  46  90 N7        29.60R
DOUGLAS        LGT RAIN  50  47  89 CALM      29.58F

$$
WYZ021-027>030-104>119-251000-
SOUTHERN WYOMING

CITY           SKY/WX    TMP DP  RH WIND       PRES   REMARKS
EVANSTON       LGT RAIN  44  38  79 N18G26    29.74R
KEMMERER       LGT RAIN  41  36  81 N14G22    29.74
FORT BRIDGER   FAIR      47  40  74 NW13      29.74R
ROCK SPRINGS   FAIR      46  36  68 N16       29.68R
DIXON          DRIZZLE   50  47  90 E17       29.69F
RAWLINS        CLOUDY    48  44  86 SW8       29.65F
LARAMIE        CLOUDY    51  38  60 W20       29.71R
CHEYENNE       FAIR      53  38  56 W12       29.60S
TORRINGTON     FAIR      57  46  66 N12       29.48R

$$



USA.gov is the U.S. government's official web portal to all federal, state and local government web resources and services.